User: anonymous   Login
Location: Sperry Observatory
(40.6664°N, 74.3236°W)
Time: 05:28:03
(UTC-04:00)
Language:

JAS-2 - Orbit

View from above orbital plane
View from above orbital plane
View from above satellite
View from above satellite

Ground track
Ground track

The orbit data is extracted from the following two-line orbital elements,

1 24278U 96046B   15185.53845973 -.00000015  00000-0  20504-4 0  9994
2 24278 098.5417 151.9835 0351005 025.9953 081.9062 13.53054355932372
Epoch (UTC): 04 July 2015 12:55:22
Eccentricity: 0.0351005
inclination: 98.5417°
perigee height: 800 km
apogee height: 1322 km
right ascension of ascending node: 151.9835°
argument of perigee: 25.9953°
revolutions per day: 13.53054355
mean anomaly at epoch: 81.9062°
orbit number at epoch: 93237

The dashed part of the orbit path shows where the satellite is in the earth's shadow,  

DLR